This is the latest recevied weather packets stored in our database for station/object OH2CHY-10. If no packets are shown the sender has not sent any weather packets the latest 10 day(s).
| Time | Temp. | Humidity | Pressure | Rain* | Wind** | Luminosity | Snow |
|---|---|---|---|---|---|---|---|
| 1777647534 | 26.11° C | 21% | 1016.2 hPa | - | - | - | - |
| 1777646634 | 26.11° C | 21% | 1016.3 hPa | - | - | - | - |
| 1777645734 | 26.11° C | 22% | 1016.5 hPa | - | - | - | - |
| 1777644834 | 26.11° C | 21% | 1016.8 hPa | - | - | - | - |
| 1777643934 | 26.11° C | 20% | 1016.8 hPa | - | - | - | - |
| 1777643034 | 26.67° C | 20% | 1017 hPa | - | - | - | - |
| 1777642134 | 26.11° C | 22% | 1017.3 hPa | - | - | - | - |
| 1777641234 | 26.67° C | 21% | 1017.4 hPa | - | - | - | - |
| 1777640334 | 27.22° C | 22% | 1017.6 hPa | - | - | - | - |
| 1777639433 | 27.22° C | 22% | 1017.8 hPa | - | - | - | - |
| 1777638533 | 26.67° C | 23% | 1018.1 hPa | - | - | - | - |
| 1777637633 | 26.67° C | 24% | 1018.3 hPa | - | - | - | - |
| 1777636733 | 26.11° C | 23% | 1018.5 hPa | - | - | - | - |
| 1777635833 | 25.56° C | 24% | 1018.6 hPa | - | - | - | - |
| 1777634933 | 24.44° C | 24% | 1018.7 hPa | - | - | - | - |
| 1777634033 | 25.56° C | 25% | 1018.9 hPa | - | - | - | - |
| 1777633133 | 25.56° C | 26% | 1018.9 hPa | - | - | - | - |
| 1777632233 | 25° C | 26% | 1019 hPa | - | - | - | - |
| 1777631333 | 25° C | 26% | 1019.2 hPa | - | - | - | - |
| 1777630433 | 22.78° C | 27% | 1019.4 hPa | - | - | - | - |
| 1777629533 | 23.33° C | 28% | 1019.4 hPa | - | - | - | - |
| 1777628633 | 22.22° C | 29% | 1019.7 hPa | - | - | - | - |
| 1777627733 | 22.22° C | 29% | 1019.7 hPa | - | - | - | - |
| 1777626833 | 21.67° C | 33% | 1020 hPa | - | - | - | - |
| 1777625933 | 21.67° C | 32% | 1020.2 hPa | - | - | - | - |
* Rain since midnight (hover to see other rain measurements)
** Current wind speed in m/s (hover to see current wind gust speed)